This is the latest recevied weather packets stored in our database for station/object K7KAZ. If no packets are shown the sender has not sent any weather packets the latest 10 day(s).
| Time | Temp. | Humidity | Pressure | Rain* | Wind** | Luminosity | Snow |
|---|---|---|---|---|---|---|---|
| 1777548234 | 16.67° C | 32% | 1012.6 hPa | 0 mm | - | 0 W/m² | - |
| 1777547931 | 17.22° C | 32% | 1012.7 hPa | 0 mm | - | 0 W/m² | - |
| 1777547627 | 17.22° C | 31% | 1012.8 hPa | 0 mm | - | 0 W/m² | - |
| 1777547324 | 17.22° C | 31% | 1012.8 hPa | 0 mm | - | 0 W/m² | - |
| 1777547021 | 17.22° C | 32% | 1012.7 hPa | 0 mm | - | 0 W/m² | - |
| 1777546719 | 17.78° C | 30% | 1013 hPa | 0 mm | - | 0 W/m² | - |
| 1777546415 | 17.78° C | 29% | 1012.7 hPa | 0 mm | - | 0 W/m² | - |
| 1777546112 | 17.78° C | 30% | 1012.8 hPa | 0 mm | - | 0 W/m² | - |
| 1777545808 | 17.78° C | 29% | 1013 hPa | 0 mm | - | 0 W/m² | - |
| 1777545505 | 17.78° C | 29% | 1012.9 hPa | 0 mm | - | 0 W/m² | - |
| 1777545202 | 18.33° C | 28% | 1013 hPa | 0 mm | - | 0 W/m² | - |
| 1777544900 | 18.33° C | 28% | 1012.9 hPa | 0 mm | - | 0 W/m² | - |
| 1777544596 | 18.89° C | 28% | 1013.2 hPa | 0 mm | - | 0 W/m² | - |
| 1777544293 | 18.33° C | 29% | 1013 hPa | 0 mm | - | 0 W/m² | - |
| 1777543989 | 17.78° C | 30% | 1013.2 hPa | 0 mm | - | 0 W/m² | - |
| 1777543686 | 18.33° C | 28% | 1012.9 hPa | 0 mm | - | 0 W/m² | - |
| 1777543382 | 18.33° C | 28% | 1013.4 hPa | 0 mm | - | 0 W/m² | - |
| 1777543077 | 18.89° C | 28% | 1013.2 hPa | 0 mm | - | 0 W/m² | - |
| 1777542774 | 18.89° C | 28% | 1013 hPa | 0 mm | - | 0 W/m² | - |
| 1777542471 | 18.89° C | 28% | 1012.9 hPa | 0 mm | - | 0 W/m² | - |
| 1777542167 | 18.89° C | 27% | 1013 hPa | 0 mm | - | 0 W/m² | - |
| 1777541864 | 19.44° C | 28% | 1013 hPa | 0 mm | - | 0 W/m² | - |
| 1777541561 | 19.44° C | 28% | 1013 hPa | 0 mm | - | 0 W/m² | - |
| 1777541258 | 18.89° C | 29% | 1013.5 hPa | 0 mm | - | 0 W/m² | - |
| 1777540954 | 19.44° C | 27% | 1013.7 hPa | 0 mm | - | 0 W/m² | - |
* Rain latest hour (hover to see other rain measurements)
** Current wind speed in m/s (hover to see current wind gust speed)